Location: Clair
(33.8067°N, 117.9845°W)
Time: 17:03:41
(UTC+00:00)

Cosmos 374 Rocket - Pass Details

Date: 14 February 2026
Orbit: 520 x 2039 km, 62.9° (Epoch: 8 March)

Event Time Altitude Azimuth Distance (km) Brightness Sun altitude
Rises 13:48:08 0° 215° (SW) 2,933 7.8 -10.8°
Reaches altitude 10° 13:50:34 10° 217° (SW) 1,903 6.8 -10.3°
Maximum altitude 13:54:37 70° 301° (WNW) 566 4.2 -9.5°
Drops below altitude 10° 13:58:22 10° 26° (NNE) 1,757 7.1 -8.7°
Sets 14:00:33 0° 29° (NNE) 2,683 8.1 -8.3°
